2023-193D

Last updated on Thu Nov 21 2024 00:02:13 GMT+0000 (Coordinated Universal Time)

1 58556U 23193D 24325.01594820 .00100308 00000+0 67057-3 0 9991 2 58556 97.2549 338.8737 0013991 94.4633 265.8231 15.74880864 53857
UTC large
Height (km)
Speed (km/s)
/
Latitude / Longitude
Inclination (degrees)
Orbital Period (minutes)
Azimuth
Elevation
Range (km)
Doppler Factor

Next 0 passes for location: London (51.5072 / 0.1276)

Sorry there are no passes over London.